Preview of NWS' New Version of Forecast
This preview is not operational and should not be used for support decisions.

Regional Weather Roundup (RWR)

Issued by National Weather Service (NWS)

                            
000
ASUS45 KABQ 230901
RWRNM 
NEW MEXICO REGIONAL WEATHER ROUNDUP
NATIONAL WEATHER SERVICE ALBUQUERQUE NM
300 AM MDT FRI AUG 23 2019

NOTE: "FAIR" MEANS FEW OR NO CLOUDS BELOW 12,000 FEET AGL WITH NO
       SIGNIFICANT WEATHER OR OBSTRUCTIONS TO VISION.

      THIS PRODUCT IS RELEASED AS TWO VERSIONS.  ONE VERSION NEAR
      THE TOP OF THE HOUR CONTAINING PRELIMINARY DATA FROM ALBUQUERQUE
      AND OTHER STATIONS.  A FINAL VERSION WITH ADDITIONAL DATA IS 
      ISSUED ABOUT 10 MINUTES AFTER THE HOUR.
 
NMZ501-503-504-510>518-231000-
NORTHWEST PLATEAU/NORTHCENTRAL MOUNTAINS
  
CITY           SKY/WX    TMP DP  RH WIND       PRES   REMARKS
FARMINGTON     FAIR      64  38  38 NE8       30.04R                  
LOS ALAMOS       N/A     67  44  42 SW8       30.23S                  
SANTA FE       FAIR      68  47  46 SE12      30.16R                  
TAOS           FAIR      54  44  69 N6        30.22F                  
ANGEL FIRE     FAIR      44  42  94 CALM      30.32F                  

$$
NMZ402-403-502-505>509-231000-
WESTCENTRAL MOUNTAINS/SOUTHWEST MOUNTAINS
  
CITY           SKY/WX    TMP DP  RH WIND       PRES   REMARKS
GALLUP         FAIR      56  25  30 NE6       30.16S                  
GRANTS         FAIR      50  30  46 CALM      30.18R                  
SILVER CITY    FAIR      69  47  44 NW3       30.09S                  

$$
NMZ407-409-411-412-231000-
SOUTHERN DESERTS
  
CITY           SKY/WX    TMP DP  RH WIND       PRES   REMARKS
DEMING         FAIR      74  55  51 SW7       30.01R                  
LAS CRUCES     FAIR      74  55  51 SE6       30.03S                  
HOLLOMAN AFB   FAIR      78  56  46 SE13      30.02R                  
ALAMOGORDO     FAIR      77  54  44 S13       30.01S                  
T OR C         FAIR      78  48  34 W5        30.02R                  

$$
NMZ519>523-231000-
CENTRAL VALLEYS/CENTRAL HIGHLANDS
  
CITY           SKY/WX    TMP DP  RH WIND       PRES   REMARKS
ALBUQUERQUE    MOCLDY    75  50  41 E13       30.06S                  
DOUBLE EAGLE   FAIR      67  48  49 N6        30.11R                  
CLINES CORNERS FAIR      59  51  75 SE10      30.23F                  
BELEN          FAIR      74  42  31 S6        30.04S                  
SOCORRO        FAIR      74  47  39 S6        30.03R                  

$$
NMZ524>526-539-540-231000-
SOUTHCENTRAL MOUNTAINS
  
CITY           SKY/WX    TMP DP  RH WIND       PRES   REMARKS
RUIDOSO        FAIR      61  50  67 W8        30.23R                  

$$
NMZ527>531-231000-
NORTHEAST HIGHLANDS/NORTHEAST PLAINS
  
CITY           SKY/WX    TMP DP  RH WIND       PRES   REMARKS
LAS VEGAS      FAIR      52  44  74 S8        30.22R                  
RATON          FAIR      55  44  66 NE6       30.14R                  
CLAYTON        FAIR      63  47  55 W8        30.04S                  

$$
NMZ532>537-231000-
EASTCENTRAL PLAINS
  
CITY           SKY/WX    TMP DP  RH WIND       PRES   REMARKS
SANTA ROSA     FAIR      69  57  66 S9        30.07F                  
TUCUMCARI      FAIR      66  57  72 W10       29.99F                  
CANNON AFB     CLOUDY    64  57  79 SW8       30.04F                  
CLOVIS AIRPORT FAIR      66  56  70 W18       30.02S                  

$$
NMZ028-029-538-231000-
SOUTHEAST PLAINS
  
CITY           SKY/WX    TMP DP  RH WIND       PRES   REMARKS
ROSWELL        FAIR      76  59  55 E9        30.02R                  
ARTESIA        FAIR      73  61  64 E8        30.03R                  
CARLSBAD       FAIR      72  59  63 SE8       29.98S                  
HOBBS          MOCLDY    70  63  78 VRB5      30.05S                  


$$